Weather History for Casper, WY

Change the Weather History Date:

Tuesday, January 24, 2012

  Actual Average Record
Temperature  
Mean Temperature 21 °F 25 °F  
Max Temperature 31 °F 35 °F 56 °F (2005)
Min Temperature 11 °F 15 °F -40 °F (1949)
Degree Days  
Heating Degree Days 44 40  
Month to date heating degree days 905 965  
Since 1 July heating degree days 3805 4094  
Cooling Degree Days 0 0  
Month to date cooling degree days 0 0  
Year to date cooling degree days 0 0  
Moisture  
Dew Point 20 °F    
Average Humidity 75    
Maximum Humidity 88    
Minimum Humidity 62    
Precipitation  
Precipitation 0.11 in 0.01 in 0.31 in (2009)
Month to date precipitation 0.67 0.39  
Year to date precipitation 0.67 0.39  
Snow  
Snow 2.30 in 0.30 in - ()
Month to date snowfall 9.1 7.1  
Since 1 July snowfall 35.8 37.6  
Snow Depth 2.00 in    
Sea Level Pressure  
Sea Level Pressure 30.08 in    
Wind  
Wind Speed 11 mph (NW)    
Max Wind Speed 25 mph    
Max Gust Speed 32 mph    
Visibility 6 miles    
Events Fog , Snow    
T = Trace of Precipitation, MM = Missing Value Source: NWS Daily Summary

Daily Weather History Graph

Daily Weather History Graph

Search for Another Location

Airport:

Trip Planner

Search our weather history database for the weather conditions in past years. The results will help you decide how hot, cold, wet, or windy it might be!

Date:

Astronomy

Jan. 24, 2012 Rise Set
Actual Time 7:28 AM MST 5:07 PM MST
Civil Twilight 6:57 AM MST 5:38 PM MST
Nautical Twilight 6:23 AM MST 6:12 PM MST
Astronomical Twilight 5:49 AM MST 6:46 PM MST
Moon 7:56 AM MST (1/24) 7:06 PM MST (1/24)
Length of Visible Light 10h 40m
Length of Day
9h 39m
Waxing Crescent, 3% of the Moon is Illuminated
Jan 24
Waxing Crescent
Jan 30
First Quarter
Feb 7
Full
Feb 14
Last Quarter
Feb 21
New

Hourly Weather History & Observations

Time (MST) Temp. Windchill Dew Point Humidity Pressure Visibility Wind Dir Wind Speed Gust Speed Precip Events Conditions
12:53 AM 30.0 °F 26.5 °F 24.1 °F 79% 29.88 in 10.0 mi NNW 3.5 mph - N/A   Overcast
1:04 AM 30.2 °F 24.3 °F 24.8 °F 80% 29.84 in 10.0 mi NW 5.8 mph - N/A   Overcast
1:31 AM 28.4 °F 20.4 °F 24.8 °F 86% 29.86 in 2.5 mi NNW 8.1 mph - 0.00 in Snow Light Snow
1:35 AM 28.4 °F 22.2 °F 24.8 °F 86% 29.86 in 1.5 mi NNW 5.8 mph - 0.00 in Snow Light Snow
1:53 AM 28.0 °F 24.2 °F 25.0 °F 88% 29.93 in 0.8 mi North 3.5 mph - 0.01 in Snow Light Snow
2:28 AM 28.4 °F 20.4 °F 24.8 °F 86% 29.89 in 0.5 mi NE 8.1 mph - 0.04 in Fog , Snow Snow
2:53 AM 28.0 °F 18.6 °F 25.0 °F 88% 29.96 in 1.0 mi NNE 10.4 mph - 0.08 in Snow Light Snow
3:02 AM 28.4 °F 20.4 °F 24.8 °F 86% 29.91 in 2.5 mi NNE 8.1 mph - 0.00 in Snow Light Snow
3:10 AM 28.4 °F 21.2 °F 24.8 °F 86% 29.91 in 3.0 mi NNE 6.9 mph - 0.00 in Snow Light Snow
3:36 AM 26.6 °F - 23.0 °F 86% 29.93 in 2.5 mi Calm Calm - 0.00 in Snow Light Snow
3:49 AM 26.6 °F 21.2 °F 23.0 °F 86% 29.93 in 1.8 mi North 4.6 mph - N/A Snow Light Snow
3:53 AM 27.0 °F 20.5 °F 23.0 °F 85% 30.00 in 1.8 mi North 5.8 mph - 0.01 in Snow Light Snow
4:00 AM 26.6 °F 20.0 °F 24.8 °F 93% 29.94 in 2.5 mi North 5.8 mph - N/A Snow Light Snow
4:11 AM 26.6 °F 20.0 °F 24.8 °F 93% 29.95 in 2.0 mi North 5.8 mph - 0.00 in Snow Light Snow
4:21 AM 26.6 °F 21.2 °F 24.8 °F 93% 29.96 in 1.2 mi NNE 4.6 mph - 0.00 in Snow Light Snow
4:42 AM 26.6 °F 13.4 °F 21.2 °F 80% 29.97 in 2.0 mi North 18.4 mph - 0.01 in Snow Light Snow
4:53 AM 26.1 °F 13.1 °F 21.9 °F 84% 30.06 in 3.0 mi North 17.3 mph - 0.01 in Snow Light Snow
5:53 AM 26.1 °F 14.0 °F 21.0 °F 81% 30.09 in 3.0 mi North 15.0 mph - 0.00 in   Overcast
6:53 AM 24.8 °F - 21.2 °F 86% 30.05 in 10.0 mi Calm Calm - N/A   Overcast
7:53 AM 24.1 °F - 19.9 °F 84% 30.15 in 10.0 mi Calm Calm - N/A   Overcast
8:53 AM 23.0 °F 18.4 °F 19.9 °F 88% 30.20 in 10.0 mi SSW 3.5 mph - N/A   Mostly Cloudy
9:53 AM 26.1 °F 19.4 °F 19.0 °F 75% 30.23 in 10.0 mi NW 5.8 mph - N/A   Scattered Clouds
10:53 AM 25.0 °F 17.1 °F 18.0 °F 75% 30.25 in 10.0 mi WNW 6.9 mph - N/A   Clear
11:53 AM 27.0 °F 20.5 °F 19.9 °F 75% 30.24 in 10.0 mi SW 5.8 mph - N/A   Mostly Cloudy
12:53 PM 28.0 °F 19.3 °F 21.0 °F 75% 30.23 in 10.0 mi SSW 9.2 mph - N/A   Clear
1:53 PM 28.4 °F 18.0 °F 19.4 °F 69% 30.13 in 10.0 mi SW 12.7 mph - N/A   Clear
2:53 PM 27.0 °F 15.2 °F 19.0 °F 72% 30.23 in 10.0 mi SW 15.0 mph - N/A   Clear
3:53 PM 26.1 °F 14.5 °F 18.0 °F 71% 30.25 in 10.0 mi SSW 13.8 mph - N/A   Clear
4:53 PM 21.9 °F 9.8 °F 15.1 °F 75% 30.28 in 10.0 mi SW 12.7 mph - N/A   Clear
5:53 PM 17.1 °F 4.3 °F 10.9 °F 77% 30.31 in 10.0 mi WSW 11.5 mph - N/A   Clear
6:53 PM 12.9 °F 2.6 °F 8.1 °F 81% 30.33 in 10.0 mi West 6.9 mph - N/A   Clear
7:53 PM 17.1 °F 2.5 °F 9.0 °F 71% 30.32 in 10.0 mi SW 15.0 mph - N/A   Clear
8:53 PM 21.2 °F 5.6 °F 10.4 °F 63% 30.15 in 10.0 mi SSW 20.7 mph - N/A   Clear
9:53 PM 21.9 °F 5.1 °F 10.0 °F 60% 30.23 in 10.0 mi SSW 25.3 mph - N/A   Clear
10:53 PM 21.2 °F 6.4 °F 10.4 °F 63% 30.10 in 10.0 mi SSW 18.4 mph 27.6 mph N/A   Clear
11:53 PM 21.9 °F 5.5 °F 10.9 °F 63% 30.19 in 10.0 mi SW 24.2 mph - N/A   Clear